Theta_e
291 292 286 285 288 291 291 292 293 293 294 293 290 291 294 293 288 286 291 292 290 293 295 290 291 291 291 292 293 294 296 293 292 291 290 290 289 288 288 290 290 290 291 292 291 289 289 286 287 287 287 287 287 287 287 287 286 288 287 290 292 293 293 294 296 296 296 294 295 295 294 296 296 296 295 295 294 294 295 299 301 302 303 304 306 307 305
289 290 289 286 284 286 289 291 291 293 293 292 293 293 295 294 292 293 293 292 292 295 296 294 293 292 291 292 291 290 290 290 290 290 290 290 291 290 290 291 291 291 292 292 290 289 288 288 288 287 287 288 288 288 289 288 288 289 287 291 293 292 293 294 293 292 293 293 294 294 295 295 294 293 293 293 293 293 294 294 295 295 297 298 300 300 300
286 288 289 288 287 288 287 290 292 294 294 293 292 293 294 294 293 294 293 292 292 297 299 298 296 290 290 289 289 291 289 288 289 291 291 292 292 293 293 292 292 291 291 290 288 289 291 291 290 291 291 290 287 287 288 289 290 291 290 291 292 292 293 293 292 290 292 293 293 293 292 290 289 291 292 291 292 292 292 292 293 293 293 295 294 294 295
284 287 287 287 287 287 287 287 289 291 292 290 292 291 294 292 290 292 292 290 291 297 300 295 293 293 293 292 293 291 290 289 289 291 292 293 293 293 293 292 291 290 289 289 290 291 292 292 291 290 291 289 287 290 290 290 290 290 290 292 293 293 294 292 292 292 293 292 293 292 291 290 289 287 288 290 291 291 291 291 289 289 291 291 291 291 292
283 287 287 286 287 286 283 284 288 290 292 294 294 296 296 296 296 292 289 291 297 299 295 294 294 296 298 297 295 293 293 291 290 291 292 293 293 294 294 293 292 291 291 291 292 292 292 292 292 292 292 290 291 292 291 290 290 292 291 292 293 293 293 293 293 293 292 293 292 291 290 289 288 287 288 288 289 290 290 288 288 289 289 290 289 289 290
284 287 285 286 284 278 280 292 295 294 291 292 291 292 295 297 297 295 297 297 299 291 292 297 297 293 297 300 301 300 297 295 292 291 291 292 293 293 294 293 293 292 292 292 292 293 294 294 294 292 290 293 294 291 290 289 292 293 293 293 293 294 293 293 292 292 291 291 291 289 289 288 288 288 288 288 287 287 287 287 288 288 288 288 288 289 289
284 285 285 283 277 279 293 295 295 297 296 296 294 295 296 297 299 298 297 298 298 300 300 300 299 296 297 299 300 300 300 298 296 295 293 293 293 293 294 293 292 292 292 293 293 292 292 292 291 289 289 291 289 289 289 291 292 293 294 294 294 294 292 292 291 291 291 290 289 289 288 287 287 287 288 287 287 287 287 288 288 288 288 288 288 288 288
284 281 282 277 278 288 289 292 296 297 298 297 295 293 296 298 298 299 297 299 300 301 301 299 294 294 294 293 293 296 300 301 301 299 296 295 295 296 297 296 294 292 292 293 293 294 295 293 291 291 293 291 289 289 288 291 291 293 294 295 294 293 292 291 291 291 290 289 289 288 287 287 287 287 287 288 287 287 287 287 286 287 287 287 287 287 287
281 281 283 282 288 285 286 287 289 293 290 291 291 287 291 297 299 299 298 299 300 301 301 301 299 289 291 292 296 297 296 298 299 301 301 300 300 301 301 296 296 295 294 293 294 295 295 294 294 293 292 290 291 289 289 289 290 291 292 293 294 293 292 291 291 290 290 290 288 288 287 287 287 287 287 287 286 287 287 287 287 287 287 286 287 287 287
284 282 280 282 281 279 284 288 289 298 298 298 298 294 291 298 300 301 299 298 300 300 301 301 295 289 291 292 297 301 298 297 299 299 300 299 298 300 301 300 295 294 293 293 292 292 293 293 294 293 290 290 290 289 289 289 290 291 291 293 293 292 292 290 290 290 290 290 289 287 287 288 288 287 286 286 287 287 288 287 287 286 286 286 286 287 287
283 280 278 279 279 282 288 286 290 295 297 297 296 291 287 296 299 300 300 299 300 300 300 297 292 291 290 294 298 301 296 295 293 296 297 298 298 300 301 300 296 293 292 292 290 289 289 291 291 289 289 289 290 290 289 289 289 290 291 292 292 292 291 291 290 290 290 290 289 288 288 288 288 287 287 287 286 287 287 287 287 286 286 287 286 286 286
281 281 280 278 282 282 285 288 290 292 296 298 294 283 283 296 299 300 300 299 300 300 300 292 293 294 292 294 299 293 297 298 298 298 299 299 298 298 297 294 295 295 290 288 288 289 290 292 292 289 288 289 290 290 289 288 289 290 291 291 291 291 291 290 290 289 289 289 288 288 288 288 287 287 287 286 286 287 286 287 287 286 286 286 286 286 286
281 282 280 283 283 286 284 286 289 292 297 295 286 281 290 296 299 300 300 300 301 301 294 293 295 297 300 302 298 293 295 297 298 299 299 300 300 299 299 297 291 289 289 291 292 292 292 293 290 288 289 290 290 290 289 288 289 290 290 290 290 291 290 290 289 289 289 289 288 288 288 288 287 287 287 287 286 286 286 286 286 286 286 286 286 285 285
278 280 280 280 284 287 285 285 292 295 293 284 284 295 294 295 295 298 299 299 300 297 295 297 299 301 302 302 293 290 291 296 299 299 298 297 296 296 294 291 290 290 289 289 289 289 288 289 288 288 289 290 290 289 288 288 290 288 288 289 290 290 289 289 289 288 288 288 288 288 287 287 287 286 287 287 287 287 287 286 286 286 286 286 285 285 285
283 282 279 280 276 286 289 291 289 292 289 287 295 292 293 293 292 292 292 297 299 298 297 299 300 301 300 299 299 298 296 293 295 297 296 296 296 297 296 289 288 291 290 289 290 290 288 285 287 288 289 290 289 288 288 289 288 288 289 289 289 289 289 289 288 288 288 288 288 288 287 287 287 286 286 286 286 286 286 286 286 285 285 285 285 285 284
278 280 279 279 286 287 289 295 290 291 295 290 288 288 289 289 288 289 290 291 294 296 298 299 299 299 298 298 298 298 297 297 298 298 294 293 295 296 294 292 290 287 291 290 290 287 284 284 286 287 289 289 289 288 289 287 287 288 288 289 289 288 288 288 288 287 287 287 287 287 287 287 287 286 286 286 286 286 286 286 286 285 285 285 285 284 284
283 281 284 288 286 287 291 292 290 291 294 292 290 289 289 288 290 286 289 291 292 292 294 295 296 296 296 297 298 297 298 298 298 297 297 296 295 295 294 292 288 288 290 290 289 286 284 284 285 287 288 290 289 289 288 287 287 288 288 288 288 288 288 287 287 287 287 287 287 287 286 287 286 286 286 286 286 286 286 286 286 285 285 285 285 284 284
282 284 285 288 287 286 289 291 290 292 294 293 292 291 291 290 290 290 290 291 291 291 289 290 292 293 295 295 296 296 296 296 296 295 294 291 291 291 290 287 286 287 288 287 287 286 284 283 284 285 287 289 289 289 285 286 287 288 287 287 287 287 287 287 287 287 286 286 286 286 286 287 286 286 286 286 286 285 285 285 285 285 284 284 284 284 283
282 279 286 288 289 288 286 292 293 292 292 291 290 292 292 292 292 291 289 288 289 290 288 288 289 291 292 292 293 292 292 293 294 294 294 293 291 291 290 290 286 285 286 286 286 286 286 284 284 283 283 283 284 284 285 287 287 287 287 287 287 287 287 287 287 286 287 286 286 286 286 286 286 286 286 286 286 285 285 285 285 284 284 284 284 283 283
283 283 284 285 287 288 288 289 289 290 291 291 289 290 291 291 291 290 290 287 288 288 288 289 288 289 290 289 290 291 292 293 293 293 292 291 289 288 289 288 286 287 287 288 288 287 288 286 283 282 280 281 282 284 285 286 287 287 287 287 287 287 287 287 287 287 287 284 285 286 286 286 285 285 286 286 286 285 285 285 284 284 284 283 284 284 283
282 284 286 288 285 286 288 288 287 289 291 291 291 291 292 291 290 291 291 288 289 290 290 290 288 288 289 289 289 290 291 291 291 292 293 291 290 289 286 285 285 287 288 288 288 288 287 283 282 282 281 279 282 284 286 286 287 287 287 287 287 286 286 286 286 286 286 286 286 285 285 285 284 285 285 286 285 283 282 284 286 285 284 284 284 284 284
281 282 285 282 281 283 285 284 289 290 290 290 291 292 291 292 291 291 291 292 291 289 289 289 288 287 289 290 289 289 290 291 292 292 291 289 286 285 284 282 283 283 282 284 284 284 281 281 282 282 280 280 281 284 286 287 287 287 286 286 286 286 286 286 286 285 285 286 285 285 284 282 281 280 281 284 284 284 282 283 283 284 284 280 282 281 280
282 286 288 285 287 287 289 289 288 288 290 290 290 291 292 292 292 290 289 290 292 293 293 289 287 287 288 289 289 288 289 290 290 289 288 287 284 283 282 282 281 282 279 280 281 280 279 280 280 280 279 279 280 282 285 286 287 287 286 286 286 285 285 285 284 285 285 284 284 283 283 282 281 280 279 281 283 283 283 283 283 283 283 282 281 280 278
287 289 289 285 285 288 289 286 287 289 291 291 291 292 292 292 291 291 291 292 292 292 292 291 286 286 287 287 287 287 288 287 285 283 282 282 283 283 283 283 282 280 280 280 280 280 279 279 279 278 277 277 278 279 282 285 286 286 286 286 285 285 284 283 282 282 283 282 281 281 281 281 281 280 279 278 278 282 283 283 283 283 283 282 282 283 282
287 291 289 286 286 288 289 288 290 291 291 291 292 293 292 292 292 291 291 292 291 288 288 289 290 284 285 287 286 286 287 284 279 279 280 281 282 283 283 281 281 281 280 280 279 278 278 278 277 277 275 273 274 277 280 283 285 285 285 285 284 283 282 281 281 280 280 280 280 280 280 280 280 280 280 279 277 276 278 282 283 282 283 283 283 283 283
288 289 290 287 285 288 290 289 289 291 292 290 288 290 291 290 291 290 290 290 288 287 286 287 288 287 282 285 286 284 282 280 278 280 281 281 282 282 282 282 281 280 279 278 277 276 276 276 275 275 272 271 272 274 278 281 284 284 284 283 282 281 281 280 280 280 280 280 280 280 280 280 279 279 279 278 277 275 274 274 275 278 281 282 283 283 283
286 287 287 285 286 287 289 287 288 291 290 289 291 292 293 293 291 289 285 282 282 282 283 285 284 283 281 281 281 280 282 280 279 281 281 280 281 281 280 280 279 278 277 276 274 274 274 274 274 273 270 269 270 271 277 281 281 282 281 280 280 277 276 277 280 279 279 279 279 278 278 277 277 276 276 274 274 274 274 273 273 273 270 273 279 281 278
285 287 287 284 284 286 287 288 287 290 290 292 292 292 293 290 288 287 288 288 287 285 282 281 283 283 284 280 278 281 279 280 281 281 280 280 279 278 278 277 276 275 274 274 273 273 273 273 272 271 268 269 270 271 277 279 279 279 278 278 278 278 278 277 278 278 278 277 277 277 276 275 274 273 273 273 273 272 271 272 272 271 268 267 269 275 277
284 286 286 287 289 290 290 287 286 287 288 288 287 288 288 288 288 288 288 289 287 284 286 285 281 282 284 284 281 281 280 280 280 280 279 276 275 275 275 275 274 273 273 272 271 272 272 272 271 269 268 268 269 272 276 277 278 277 277 277 277 277 277 276 276 276 275 275 275 274 274 272 271 271 271 271 271 271 271 271 270 268 269 267 269 271 272
283 284 284 284 285 285 285 286 287 288 288 289 289 289 289 288 288 288 289 288 284 285 286 285 283 283 282 282 282 282 282 281 280 277 275 274 274 274 273 273 272 272 271 270 271 271 272 271 271 269 268 267 269 273 276 276 276 276 276 276 275 275 274 273 273 273 272 272 272 272 271 270 271 271 270 270 270 270 270 269 269 269 268 266 269 266 267
282 283 282 283 284 284 284 284 286 287 287 288 288 288 289 287 287 288 288 288 285 284 284 283 283 282 281 281 280 279 278 277 275 274 273 273 273 273 273 274 272 271 270 270 270 270 270 269 268 267 266 265 268 271 274 274 273 272 272 272 271 272 272 272 273 272 271 271 270 270 270 270 270 270 270 269 269 269 268 268 267 266 265 264 265 265 265
281 281 281 281 281 282 284 285 286 286 287 288 287 287 288 288 287 288 288 288 287 286 283 281 281 282 281 278 276 276 276 275 273 272 272 272 272 271 272 273 273 270 270 269 269 269 269 267 265 265 264 266 268 270 271 272 272 272 271 270 271 271 271 272 271 271 270 270 270 270 269 269 269 269 269 269 269 268 267 267 266 265 264 265 264 263 264
279 280 281 281 281 280 282 283 284 285 286 287 287 288 289 289 289 288 288 286 283 280 281 281 281 279 277 276 276 275 274 273 272 271 269 268 267 267 268 268 268 267 265 264 264 265 266 265 263 264 264 266 268 269 270 271 271 271 270 271 270 270 269 271 270 270 269 269 268 268 267 268 267 268 267 267 266 266 266 266 265 264 264 263 262 262 266
282 283 283 283 282 283 284 285 285 284 285 286 287 287 287 286 285 285 283 280 281 281 280 280 277 275 276 276 275 273 272 271 269 268 266 265 264 263 263 263 263 262 262 262 263 262 262 262 263 264 264 264 265 265 267 269 270 270 270 270 269 269 269 268 269 269 268 267 266 266 266 266 266 266 266 265 265 265 265 265 264 264 263 262 261 262 268
268 269 270 268 269 270 271 272 273 275 276 278 281 282 281 281 280 280 280 280 281 282 279 276 274 274 275 274 273 272 272 273 271 267 264 263 262 263 263 263 263 262 262 262 262 262 262 262 263 264 265 265 265 265 266 267 268 268 268 268 268 267 267 267 267 267 266 265 265 265 265 264 264 264 264 265 265 265 265 264 264 264 263 263 262 262 265
266 267 269 269 268 267 269 270 271 272 273 274 277 279 279 278 276 276 276 276 275 275 275 274 274 274 273 273 272 272 272 270 266 264 262 263 263 264 264 264 263 262 262 261 262 262 263 263 263 263 264 264 264 264 265 266 266 267 267 267 266 266 265 265 264 264 264 264 264 264 263 263 264 264 263 263 264 264 264 264 264 264 263 263 263 263 262
265 265 265 265 266 266 266 267 266 266 268 270 273 274 274 273 273 272 271 271 272 274 274 274 273 272 272 272 271 270 268 266 265 263 263 264 265 265 265 265 265 264 264 261 261 262 262 263 262 263 264 264 263 263 264 264 265 266 266 266 265 265 265 264 264 264 263 264 264 264 264 265 264 264 264 264 264 264 264 264 264 263 263 263 263 263 262
264 264 264 264 264 264 264 264 264 266 267 267 268 268 269 269 269 269 269 270 272 272 273 273 273 272 270 268 266 265 264 264 264 264 264 265 266 266 266 266 266 265 262 260 261 262 262 262 262 263 263 263 263 264 264 264 264 266 266 265 265 265 265 264 264 264 264 264 264 265 265 265 264 264 264 264 264 264 264 264 264 263 263 263 263 263 262
264 265 265 265 265 264 264 265 266 266 266 267 267 267 268 268 268 269 269 269 270 271 271 270 269 268 268 266 265 264 264 264 264 265 265 265 264 262 259 259 259 260 261 262 262 262 262 262 263 263 263 263 264 264 264 264 264 266 266 266 266 265 265 264 264 264 264 264 264 264 264 264 264 264 264 263 263 264 264 264 264 263 263 263 263 262 262
264 264 264 264 264 265 265 264 264 265 266 267 267 267 268 268 268 268 268 268 268 269 269 269 268 267 266 265 264 264 264 264 264 263 261 261 260 260 260 260 261 262 262 262 262 262 262 262 262 262 263 263 264 264 264 264 264 265 265 265 265 265 265 264 264 264 264 264 264 264 264 264 263 263 263 263 263 263 263 263 262 262 262 262 261 261 261
263 263 264 264 264 264 263 263 263 264 265 265 266 267 267 267 268 267 267 267 268 268 269 268 267 266 266 265 263 263 263 263 263 262 263 263 263 263 261 259 261 261 262 262 262 262 262 262 262 262 262 263 263 263 264 264 264 264 264 265 264 264 264 264 264 264 264 264 263 263 263 263 262 262 262 262 262 262 262 261 261 261 261 261 260 260 260
262 263 263 263 263 263 263 263 264 263 264 264 265 266 266 267 267 266 267 267 267 267 267 266 266 265 264 263 263 262 262 263 263 263 263 263 263 262 259 259 261 261 262 262 262 262 262 261 262 262 262 263 263 262 263 264 264 263 263 263 263 263 263 263 262 262 263 262 262 262 262 262 262 261 262 261 261 261 261 260 260 260 260 260 260 260 260
261 261 261 261 261 261 261 261 261 262 262 262 264 265 266 266 266 266 265 265 265 264 264 264 264 263 263 263 263 262 261 261 261 260 259 259 259 260 260 259 260 261 262 261 261 261 261 260 260 261 261 261 262 262 263 263 263 262 262 262 262 262 262 262 261 262 262 262 261 261 261 261 261 261 261 261 261 260 260 260 260 260 259 259 259 259 258
261 261 260 260 261 261 261 261 261 261 260 260 262 264 265 265 265 265 264 263 263 263 263 263 263 263 263 262 262 261 261 261 261 261 260 259 259 259 260 260 260 260 260 260 260 259 259 259 260 260 260 261 261 262 263 262 262 262 261 261 261 261 261 261 261 261 261 261 261 261 260 260 260 260 260 260 260 259 259 259 259 259 258 258 258 258 257
261 260 260 260 260 260 259 259 259 258 259 260 260 261 262 263 263 264 264 263 263 263 262 262 262 262 261 261 259 258 258 259 260 262 262 261 259 258 259 259 260 260 260 259 259 259 259 259 259 259 260 260 260 261 261 261 261 260 260 260 260 260 260 260 259 260 260 259 260 260 260 260 260 259 259 259 259 259 259 259 258 258 258 258 258 257 257
260 260 260 260 259 259 260 260 260 260 260 259 258 258 259 260 260 261 261 260 259 259 260 261 260 260 260 260 259 260 260 259 258 257 258 260 261 259 259 258 259 259 259 259 258 258 258 259 259 259 259 259 259 259 259 259 259 259 259 259 259 259 259 259 259 259 259 259 259 259 259 259 259 259 259 258 258 258 258 258 258 258 258 258 257 257 257
261 261 261 261 261 261 261 261 261 261 260 258 256 256 257 257 257 257 257 257 257 256 256 256 256 256 257 259 260 260 259 258 258 258 258 258 258 258 258 258 258 258 258 258 258 258 258 258 258 258 258 258 258 258 258 258 258 258 258 258 258 258 258 258 258 258 258 258 258 258 258 258 258 258 258 258 258 258 258 257 257 257 257 257 257 257 257
261 261 262 261 261 261 261 261 260 258 258 257 257 257 257 257 257 257 257 257 256 256 256 255 255 255 256 256 256 255 257 260 259 258 258 257 257 257 257 257 257 257 257 257 257 257 258 258 258 258 258 257 257 257 257 257 257 257 257 258 258 258 258 257 257 257 257 257 257 257 257 257 257 257 257 257 257 257 257 257 257 256 257 256 256 256 256
259 259 260 260 261 261 261 260 259 259 259 259 259 259 259 259 258 258 258 257 257 256 256 255 255 255 256 255 255 256 256 256 260 259 257 256 256 256 256 256 257 257 257 256 256 256 257 257 257 257 257 256 256 256 256 256 256 256 257 257 257 257 257 257 257 257 256 256 256 256 256 256 256 256 256 256 256 256 256 256 256 256 256 256 256 256 256
258 257 256 255 255 256 257 257 257 257 258 259 259 260 261 261 258 258 258 257 256 256 255 255 255 255 255 255 256 255 256 256 256 256 256 256 256 256 255 255 256 256 256 256 256 256 255 255 255 255 255 256 255 255 255 255 255 255 255 256 256 256 256 256 256 256 256 256 256 256 256 256 256 256 256 256 256 256 256 256 256 256 256 256 256 256 256
256 255 255 255 255 255 255 255 255 256 257 258 258 258 258 257 256 256 257 258 258 256 255 255 255 255 255 255 255 255 255 255 255 255 255 255 255 255 255 255 255 255 255 255 255 255 255 255 255 255 255 255 255 255 255 254 255 255 255 255 255 255 255 255 255 255 255 255 255 255 255 255 255 255 255 255 255 255 255 255 255 255 255 255 256 256 256
257 256 256 256 255 255 255 255 255 255 255 256 257 257 257 257 256 255 255 255 256 257 257 256 254 254 254 254 254 254 254 254 254 254 254 254 254 254 255 255 255 254 254 254 254 254 254 254 254 254 254 254 254 254 254 254 254 254 254 254 254 254 254 254 255 254 254 255 255 254 255 255 255 255 255 255 255 255 255 255 255 255 255 255 255 255 255
Wind_Speed
22 20 5 4 1 6 11 16 17 23 22 21 22 24 25 20 17 21 21 20 21 26 25 9 12 10 11 13 13 15 15 7 2 3 5 6 5 5 5 7 7 7 8 9 8 6 6 5 6 6 6 6 5 5 5 4 4 6 5 6 6 6 6 7 7 4 4 4 4 4 4 4 4 4 3 3 2 2 4 5 6 5 4 4 5 6 6
20 20 13 3 4 2 3 10 14 16 18 21 22 23 24 23 18 17 20 17 21 22 20 8 11 8 8 8 5 2 2 5 5 5 6 7 7 8 9 10 10 9 11 9 6 4 5 7 7 6 6 7 7 7 7 5 5 4 5 6 6 6 6 6 4 3 4 4 4 3 3 3 2 1 1 1 1 2 2 2 3 3 4 4 4 4 4
16 16 13 8 8 9 11 8 8 13 16 18 19 18 20 19 19 19 20 21 20 20 20 16 6 4 4 5 5 7 6 5 6 7 9 10 11 11 11 10 10 10 9 6 5 5 8 8 9 8 8 6 5 5 5 6 6 5 6 6 5 6 6 4 4 4 4 4 4 4 3 3 2 2 1 1 1 1 1 2 2 2 3 3 3 3 4
14 13 14 16 11 10 15 16 13 12 13 17 18 20 20 19 22 24 25 21 19 21 22 5 3 5 7 8 9 7 7 8 8 9 11 11 10 10 10 10 8 7 7 7 8 9 10 9 8 7 7 6 4 9 7 7 6 5 6 6 6 6 5 5 5 6 5 5 5 4 4 3 3 2 2 1 1 1 2 2 1 2 2 3 3 3 3
16 15 12 15 14 11 14 18 16 16 17 15 13 18 19 20 16 17 18 21 24 23 1 4 10 14 16 14 9 8 10 9 9 12 13 10 9 11 11 11 11 10 10 11 12 11 8 9 9 11 8 6 9 10 8 6 6 7 7 7 6 6 5 5 5 5 5 6 5 4 3 3 3 2 1 1 2 2 2 2 3 3 3 3 3 2 3
12 16 9 7 8 20 21 9 20 22 21 20 21 20 22 25 20 17 17 20 18 3 4 15 18 12 17 19 17 12 10 11 10 9 7 9 12 11 10 10 11 10 9 8 10 12 13 13 12 7 8 11 11 6 5 6 8 7 8 7 7 6 6 5 5 5 5 5 4 3 3 2 2 2 2 2 2 2 3 3 3 3 3 3 3 3 3
14 7 10 10 21 16 1 2 9 18 20 13 16 19 21 23 21 20 21 21 23 25 22 23 14 8 11 11 12 12 11 9 9 12 13 13 12 12 12 11 10 10 12 13 12 10 9 10 8 6 6 9 4 4 6 8 7 8 8 8 7 7 6 5 5 5 5 4 4 3 3 3 3 3 3 3 3 3 3 3 4 4 4 4 3 3 3
2 6 13 13 7 3 5 6 14 15 12 15 11 15 19 20 21 22 25 30 33 30 25 13 1 5 8 6 7 10 14 16 16 13 11 12 13 14 16 15 13 13 14 15 14 14 13 9 7 8 11 7 6 6 4 6 7 7 7 7 7 6 7 7 7 6 6 5 4 4 5 4 4 4 4 5 4 3 3 3 3 3 2 2 3 2 2
10 5 8 9 3 2 2 3 3 10 11 11 16 14 18 27 28 25 23 27 28 27 22 23 15 3 1 3 12 14 14 12 10 15 17 18 19 19 17 8 13 14 12 11 13 12 11 12 11 12 9 7 8 6 7 7 7 7 7 8 8 8 7 7 7 7 7 7 6 6 5 5 5 5 5 4 4 3 4 4 4 3 3 2 3 4 3
3 7 8 5 7 16 6 7 4 11 15 17 18 16 18 12 16 18 18 25 31 32 29 26 8 5 2 12 18 20 14 12 16 14 12 10 9 13 17 14 8 9 11 11 10 8 9 10 12 9 7 8 9 8 8 6 7 7 8 9 8 8 8 8 8 8 8 8 8 8 7 7 6 5 4 3 4 4 5 5 4 4 4 3 3 3 4
4 4 4 7 10 7 5 7 6 8 6 7 10 5 15 18 15 17 23 28 29 26 23 9 11 4 11 20 24 11 7 9 6 10 15 17 16 18 19 16 13 12 13 13 10 7 6 8 8 6 8 9 9 9 8 8 8 9 10 10 9 10 9 9 9 9 9 9 9 9 9 8 8 8 7 6 4 4 4 4 4 4 4 4 3 2 3
2 2 4 5 2 2 2 2 1 3 7 9 9 9 11 20 9 12 14 23 28 26 16 5 8 11 18 24 19 8 13 13 16 18 20 19 16 15 15 11 12 11 6 4 5 8 11 14 12 9 9 9 10 10 9 7 9 11 13 12 9 7 8 8 8 8 8 9 8 9 9 8 7 7 6 6 6 6 5 5 5 4 4 4 4 3 3
8 8 2 2 4 5 3 4 3 3 5 7 12 14 13 1 12 15 16 19 22 19 6 10 13 17 20 23 8 6 7 10 12 15 17 18 17 19 19 17 11 6 7 11 13 14 15 13 7 9 9 10 10 10 9 9 12 14 8 7 8 9 8 8 8 9 8 8 9 8 7 8 7 6 7 7 7 6 6 5 5 5 5 4 4 3 2
5 4 6 6 4 5 3 2 9 7 7 8 10 10 1 1 1 8 13 17 17 8 11 13 15 19 19 20 7 5 6 10 13 13 14 13 12 12 11 7 6 8 7 8 9 8 7 7 9 10 11 12 12 10 9 13 15 6 7 8 8 9 9 9 9 8 8 7 8 8 6 7 8 7 6 7 8 7 6 6 7 6 5 4 4 4 3
1 2 4 3 5 2 3 7 2 3 6 6 4 4 6 0 1 1 4 9 11 8 11 15 18 19 16 14 14 15 11 10 13 15 11 11 14 17 16 8 7 9 9 11 13 13 8 6 7 9 11 13 11 10 12 16 7 7 8 9 9 9 9 9 9 9 8 9 8 7 7 7 8 7 6 6 6 7 7 7 6 6 5 4 4 4 3
5 6 7 5 2 1 3 8 8 6 9 3 0 4 8 7 3 5 4 4 5 6 10 14 14 14 14 14 14 14 12 13 17 15 9 8 10 12 10 9 9 8 11 10 10 7 5 6 7 8 12 12 11 12 16 6 8 7 9 8 9 9 9 9 9 8 8 8 7 6 7 7 6 7 6 5 5 5 5 6 6 5 4 4 4 4 4
4 4 5 6 5 6 6 3 1 3 6 6 1 1 4 5 8 2 3 5 7 6 7 10 12 11 10 13 15 13 16 17 14 15 16 14 14 13 12 10 8 9 13 13 11 9 8 9 9 10 11 14 14 16 10 10 10 11 10 10 10 10 9 9 9 7 7 7 7 6 6 7 6 6 6 5 5 3 4 4 5 5 5 4 4 4 4
3 4 3 4 3 1 1 5 5 5 7 9 7 7 9 7 8 6 7 7 7 9 4 4 8 8 10 12 13 13 12 12 12 12 11 8 10 11 8 6 7 10 8 6 8 10 8 8 8 9 10 10 16 14 9 10 11 11 11 11 11 10 9 8 8 8 9 7 7 6 6 5 5 5 6 6 5 5 4 4 4 4 4 4 4 4 4
2 5 7 11 14 7 4 6 7 8 6 6 6 12 12 12 12 12 8 8 9 9 6 6 9 12 11 10 11 10 11 13 15 15 14 12 12 12 12 13 8 7 8 10 11 12 13 11 10 9 9 7 5 6 11 9 10 10 11 11 10 9 10 9 8 9 9 8 7 7 6 5 5 6 6 6 6 6 5 5 5 5 5 5 4 4 4
6 9 7 6 8 7 5 4 5 7 10 9 8 9 11 12 11 9 11 5 7 7 9 9 7 12 11 8 10 10 11 13 14 15 13 13 11 13 14 10 11 10 12 14 15 14 14 12 10 8 6 6 5 8 9 10 10 11 11 11 11 10 10 9 8 9 8 9 9 7 6 6 6 5 5 5 7 7 7 7 7 6 6 6 6 6 5
5 7 12 13 5 6 10 9 7 8 8 9 10 10 11 10 8 11 10 6 9 8 13 9 5 7 12 9 8 10 13 13 13 15 16 13 13 11 9 10 11 14 14 14 14 14 10 5 6 6 5 5 7 10 10 10 11 12 11 10 9 9 8 8 8 7 7 8 7 8 7 6 4 3 5 6 6 5 2 2 4 7 8 6 5 4 5
7 8 11 2 1 7 7 5 10 11 11 10 11 11 10 11 12 10 9 11 7 8 10 9 6 8 11 12 8 11 13 14 16 15 13 10 6 6 5 3 6 6 5 7 6 6 4 6 6 6 5 4 4 6 8 10 11 12 11 10 10 9 8 8 8 8 8 7 7 8 8 8 7 6 7 7 4 6 5 4 7 6 5 4 5 6 6
10 13 15 4 5 7 11 9 6 5 6 6 9 11 12 12 11 8 7 8 11 13 11 4 6 8 8 13 10 9 11 15 12 11 11 10 7 6 4 5 5 7 5 5 6 7 7 6 6 6 6 5 6 5 6 8 9 10 11 10 9 8 9 8 9 8 8 8 8 7 8 8 7 8 6 7 11 10 7 7 8 8 8 9 9 6 6
11 14 14 4 3 10 10 4 6 7 7 8 11 12 12 11 11 10 8 9 9 10 12 12 4 6 7 10 8 12 15 13 10 8 5 4 4 4 5 7 7 6 5 7 8 9 7 7 7 7 7 5 5 5 5 7 8 9 10 10 9 9 8 8 9 8 7 8 8 9 8 8 8 8 9 8 7 9 10 10 12 12 11 10 8 7 7
15 17 9 2 6 9 9 5 8 10 10 8 10 12 11 11 10 8 9 11 7 6 8 13 12 4 7 11 7 10 11 9 5 5 3 1 2 4 5 4 7 9 8 6 6 6 7 7 7 7 8 5 4 4 5 6 7 9 9 9 9 8 8 9 8 8 9 9 9 9 9 9 9 8 9 9 9 7 8 12 13 11 11 10 10 9 9
17 19 17 6 3 11 14 10 13 18 18 7 6 8 11 11 12 10 11 9 9 6 6 7 12 10 3 8 9 8 6 8 4 2 3 3 3 4 6 6 4 3 5 7 7 7 7 8 7 7 7 3 3 2 4 6 7 9 8 8 8 8 8 9 9 8 8 8 8 8 8 7 7 8 8 8 9 9 9 7 8 9 10 10 9 9 9
14 17 14 11 14 18 18 16 17 17 9 6 10 14 14 13 12 8 6 6 6 6 6 8 7 8 5 5 7 5 7 4 2 4 4 3 5 4 1 2 5 6 7 7 7 6 7 8 7 7 7 3 1 1 3 6 8 8 8 8 7 7 9 8 7 8 7 8 8 8 8 8 8 8 8 7 9 9 9 9 9 8 6 6 8 10 7
12 14 10 13 17 18 19 10 5 9 10 12 13 15 15 9 8 9 10 10 9 7 5 5 6 6 8 5 4 6 3 5 8 4 4 3 1 3 3 5 6 7 7 7 7 6 6 6 7 7 5 1 2 3 5 7 8 8 8 8 7 7 7 8 8 7 7 7 7 8 8 8 7 7 8 8 8 7 7 7 8 8 6 4 4 6 10
15 17 14 13 17 17 13 7 8 10 11 10 7 8 9 10 13 12 12 13 10 5 8 7 3 5 6 6 4 7 6 6 5 4 2 3 4 4 4 6 6 7 8 7 6 5 5 7 7 7 4 1 1 4 6 8 8 8 8 8 7 7 7 6 7 6 6 6 6 6 6 7 7 7 7 7 7 7 7 7 7 6 7 5 5 7 7
19 16 15 12 10 10 11 13 16 17 15 11 11 12 12 10 12 14 15 13 7 8 10 5 3 7 4 5 4 4 5 6 3 2 5 5 5 5 5 6 7 6 6 7 6 5 5 5 5 6 3 0 2 5 7 8 8 8 9 8 7 7 6 7 7 7 7 7 7 9 8 7 7 8 8 7 7 7 8 7 7 7 7 5 5 6 6
10 10 13 14 14 13 15 18 17 18 18 16 15 14 16 12 14 16 16 13 7 8 7 5 6 5 4 5 1 1 2 3 4 5 6 6 4 4 5 6 10 10 9 7 4 4 4 4 4 3 1 1 1 3 6 8 8 8 7 7 6 8 10 11 7 7 7 8 7 8 7 8 8 8 9 8 8 8 8 7 7 7 7 6 6 6 2
11 12 13 11 10 12 15 14 15 15 17 15 12 13 17 16 17 19 17 14 11 9 5 6 8 8 5 3 3 4 5 5 5 6 5 5 5 3 1 1 3 6 6 5 4 3 4 5 5 2 3 3 2 3 5 7 8 8 8 7 8 7 8 11 8 8 7 7 7 8 7 8 7 8 8 8 8 8 8 8 8 7 7 7 6 3 0
11 15 16 16 12 9 12 12 12 13 13 15 15 15 16 15 15 16 15 10 5 5 7 8 6 4 5 6 6 6 6 6 4 4 5 6 5 5 5 5 6 7 7 5 4 5 4 5 3 3 4 4 3 3 4 6 7 8 8 8 7 7 7 7 8 8 7 7 7 7 6 7 7 7 7 8 7 7 7 8 7 7 6 7 5 1 1
14 17 18 14 9 13 14 16 11 10 10 11 12 13 13 13 13 12 10 6 6 6 8 7 6 6 7 7 7 7 8 8 7 6 5 6 6 6 7 7 7 7 6 6 6 5 4 4 4 4 4 5 5 4 3 5 7 7 8 8 8 8 8 7 7 8 8 7 7 7 7 7 7 7 7 7 7 7 7 7 7 7 7 5 3 2 7
8 11 9 6 3 4 3 7 8 7 7 9 11 11 9 10 9 10 7 7 10 9 4 7 8 8 8 7 8 8 8 9 7 9 7 4 4 4 6 8 8 9 9 7 5 5 4 4 3 3 5 5 6 5 5 4 5 7 7 8 9 8 7 6 7 7 8 7 7 8 7 8 7 6 7 7 6 7 6 6 6 6 6 5 4 4 5
8 11 10 8 5 4 5 6 6 5 6 8 10 11 10 9 7 7 7 6 1 2 6 8 9 8 8 9 9 9 8 6 9 10 7 6 5 4 6 9 10 12 9 7 5 4 3 4 5 5 4 5 7 7 6 5 5 6 7 8 9 8 8 8 8 7 7 7 8 7 7 8 8 8 7 7 7 6 6 6 5 5 5 4 4 4 4
5 8 9 8 6 5 6 6 4 4 5 6 8 8 9 6 5 4 2 1 2 3 5 7 8 10 10 7 6 6 6 8 8 7 7 6 5 5 6 7 6 6 9 8 3 3 3 4 4 7 5 5 7 7 6 7 6 6 7 8 8 9 9 8 8 8 8 7 8 8 8 7 8 7 6 6 6 6 6 6 5 5 4 4 3 4 4
8 7 7 7 6 5 6 5 4 4 4 6 3 1 3 2 2 1 1 1 0 2 3 4 5 6 7 8 8 9 9 8 9 8 7 6 6 7 6 5 5 5 7 4 3 3 3 4 6 6 5 5 5 6 7 9 8 7 7 7 8 8 8 9 8 8 8 7 6 7 7 7 8 8 6 6 5 4 4 4 4 4 3 3 2 3 2
10 7 6 6 4 5 5 3 2 1 2 2 1 0 1 1 0 0 0 0 1 1 5 6 7 7 7 10 10 7 7 7 8 9 9 7 6 9 7 5 5 5 4 5 4 4 4 4 4 4 5 5 6 7 8 9 8 7 7 7 8 8 8 8 9 8 7 6 7 7 9 9 6 6 5 4 4 4 4 4 4 3 3 3 2 2 2
9 7 8 7 6 4 2 1 0 1 2 3 1 1 1 1 1 3 2 2 2 3 4 6 7 7 8 10 10 8 7 8 7 9 10 10 11 10 8 7 6 5 6 6 6 6 6 5 5 5 5 5 5 5 6 8 9 8 11 12 11 11 10 7 6 7 6 5 7 7 5 5 5 4 4 4 4 4 4 3 3 3 3 2 2 2 2
9 8 8 7 6 4 2 1 0 2 3 3 3 3 2 0 2 3 3 4 4 4 5 6 8 8 8 9 10 10 9 8 9 8 9 10 10 8 9 6 4 4 5 5 5 6 6 5 5 6 5 5 5 6 6 10 8 7 7 9 10 9 9 9 9 7 5 5 4 4 4 5 4 4 4 4 4 3 3 3 3 2 2 2 2 2 2
8 7 7 6 4 4 3 2 2 4 5 5 4 4 4 3 3 4 5 6 7 7 8 9 9 10 10 10 10 9 10 9 8 6 5 4 5 7 8 6 4 4 6 7 6 6 6 6 6 7 6 5 6 9 9 6 6 6 6 7 6 7 7 6 6 5 4 4 4 4 3 4 4 4 4 3 3 3 3 3 2 2 2 2 1 1 1
8 7 5 3 3 2 2 3 4 4 4 7 5 4 5 5 7 8 9 9 9 9 10 11 12 12 11 10 10 10 8 9 10 11 9 9 11 8 6 5 4 4 7 6 6 5 6 6 6 6 7 6 6 9 8 6 6 6 5 5 5 5 5 5 4 4 4 4 4 4 3 3 3 3 3 3 3 2 2 2 2 1 1 1 1 1 1
6 5 4 3 1 1 2 4 5 7 8 5 6 6 8 8 9 10 9 10 11 11 11 11 10 10 10 9 8 7 7 6 6 7 9 8 10 10 9 5 5 7 9 6 6 6 6 6 6 8 10 10 10 9 6 6 6 5 5 5 5 4 4 4 4 3 4 4 4 3 3 3 3 3 3 3 2 2 2 1 1 1 1 1 1 1 0
4 2 2 2 2 3 2 4 5 6 5 6 9 11 10 10 11 10 11 12 11 11 12 11 11 10 10 10 8 6 6 6 5 2 6 10 9 4 4 5 6 5 7 7 6 6 6 6 8 11 10 11 10 9 6 6 5 5 4 4 4 4 4 4 4 4 4 4 4 4 3 3 3 3 3 2 2 2 2 2 2 2 2 1 2 2 2
5 4 2 3 3 3 3 4 5 7 10 14 13 11 11 12 12 13 15 17 12 13 12 13 13 11 9 8 7 8 9 8 8 8 8 5 4 5 4 4 5 6 8 8 6 6 7 10 10 10 10 9 8 6 5 5 4 4 4 4 4 4 4 4 4 3 3 3 3 3 3 3 3 2 2 2 2 2 2 2 2 2 2 2 2 2 2
5 4 4 3 5 5 5 5 6 9 12 13 11 8 7 9 10 9 9 13 14 13 11 12 11 11 9 8 6 8 8 9 9 8 7 6 8 7 6 8 8 8 7 5 5 5 5 5 7 9 9 9 7 5 4 4 4 4 4 4 3 3 4 3 3 3 3 3 2 3 2 2 2 2 2 2 2 2 2 2 2 2 2 2 2 2 3
7 6 7 8 9 9 9 11 11 10 10 9 7 7 6 9 10 9 9 10 11 11 10 9 9 10 11 10 6 5 4 3 11 5 4 4 5 5 5 4 5 7 9 8 9 8 10 9 9 8 8 6 5 4 3 3 3 3 3 3 3 3 3 3 2 2 2 2 2 2 1 1 1 1 1 1 2 2 2 2 2 2 2 3 3 3 3
10 10 9 9 8 7 9 7 7 8 8 8 9 7 8 9 10 9 9 9 11 10 10 10 12 9 8 7 7 6 5 6 3 6 3 3 4 4 4 5 7 6 5 4 5 4 7 8 8 8 7 5 4 3 3 3 3 3 3 3 2 3 2 2 2 2 1 1 1 1 1 1 1 1 2 2 2 2 2 3 3 3 3 3 3 3 3
7 7 8 7 7 8 6 5 7 6 5 5 5 5 4 7 9 7 6 7 7 7 8 7 6 6 6 5 6 6 7 7 9 8 6 5 5 4 4 4 4 6 5 4 4 4 5 7 6 6 5 4 3 3 3 3 3 3 3 3 2 2 2 1 1 1 1 1 1 1 1 2 2 2 2 2 2 2 3 3 3 4 6 5 4 4 4
5 4 4 4 4 5 7 6 6 5 5 6 6 6 6 7 7 5 5 5 5 6 7 6 6 6 5 5 5 6 6 6 6 6 5 4 4 5 5 3 4 3 3 4 4 3 3 3 3 4 4 4 3 3 3 3 3 2 2 2 2 1 1 0 0 0 1 1 1 1 2 2 2 2 3 3 3 3 3 3 4 4 4 4 4 4 4
2 3 2 3 4 4 5 7 7 6 6 6 5 4 5 5 5 5 5 7 6 5 4 5 6 5 5 4 5 4 5 5 4 4 4 4 3 3 4 4 3 4 4 4 4 4 3 3 4 4 4 3 3 2 2 2 2 2 1 1 0 1 1 1 1 1 2 2 2 2 2 2 3 3 3 3 3 4 4 4 4 4 4 4 4 4 4
Wind_Direction
229 232 188 150 95 196 205 217 216 212 210 207 207 214 217 206 210 223 221 213 226 244 246 192 214 202 205 216 216 218 223 237 275 246 240 230 230 249 251 244 238 235 234 235 238 237 238 230 230 231 231 234 232 239 235 223 194 205 182 183 193 195 197 209 214 201 192 192 183 174 163 151 150 153 158 166 175 183 190 205 203 204 205 213 215 214 215
230 227 214 172 171 188 191 220 223 228 225 223 215 217 220 217 225 236 242 237 235 244 255 212 224 202 215 230 254 301 258 227 210 218 230 230 227 222 224 229 228 225 229 232 232 236 249 232 230 228 228 225 218 216 221 207 203 200 149 187 183 191 201 210 192 183 188 177 174 150 137 140 131 100 92 95 135 165 178 176 161 153 161 168 179 195 193
244 241 235 210 210 210 229 207 220 230 230 228 230 233 233 231 235 238 245 247 248 246 243 236 209 146 214 248 242 225 236 224 206 214 222 221 221 220 222 226 225 223 227 226 230 233 235 227 220 216 219 219 212 222 220 202 201 182 171 175 187 175 193 190 173 170 177 181 154 145 134 107 95 100 94 103 127 141 142 147 157 144 140 145 155 160 171
240 228 223 230 220 215 230 233 219 216 224 232 220 224 220 219 220 226 236 243 247 251 247 245 155 183 206 211 219 224 230 226 218 214 226 223 223 229 232 234 238 239 231 220 219 224 226 224 218 215 218 208 194 226 210 204 189 160 173 184 184 189 186 169 173 166 171 160 154 148 130 119 104 94 93 105 113 127 135 125 95 99 107 129 131 142 146
234 231 207 215 220 234 244 223 212 215 223 211 220 240 241 237 231 232 228 237 237 249 320 172 219 197 216 226 216 224 231 225 214 218 219 227 227 226 227 229 228 223 219 213 212 218 220 218 212 219 197 177 212 216 206 192 152 168 181 187 187 188 182 175 172 161 155 154 148 134 125 118 107 91 90 95 108 120 130 135 113 115 142 135 136 127 131
230 229 199 189 205 225 232 189 204 202 212 210 214 220 226 232 223 231 230 240 254 26 221 230 233 202 209 217 224 215 206 219 224 236 237 230 237 236 232 229 227 224 220 223 221 215 210 212 208 199 181 197 215 200 170 149 170 178 179 190 190 190 176 178 167 164 154 141 132 125 115 107 115 138 153 152 135 128 131 123 120 124 122 128 134 142 158
221 178 139 182 221 239 105 257 201 201 214 221 227 234 230 233 233 242 252 258 257 246 244 244 246 216 226 226 228 231 231 218 216 219 219 225 233 236 234 230 222 217 216 219 219 221 227 225 211 171 199 220 202 152 171 172 179 176 187 184 192 186 178 170 163 163 148 135 133 130 123 128 140 164 172 154 147 153 152 156 150 151 148 135 145 145 138
100 170 182 215 240 123 127 201 175 190 196 213 219 240 246 248 239 227 235 240 243 244 247 268 42 215 231 269 263 237 229 223 222 224 223 225 233 239 234 220 214 209 213 214 211 216 219 213 200 183 207 193 178 196 167 180 177 185 182 188 190 175 177 175 171 162 147 142 143 143 144 141 150 164 171 179 173 166 129 117 114 113 99 105 129 114 91
212 169 203 223 353 344 187 176 195 150 183 191 194 226 239 227 229 223 229 240 250 259 257 251 241 192 102 254 256 239 227 229 227 221 225 222 224 231 245 211 217 213 213 214 219 217 211 204 195 201 197 169 181 165 174 184 176 182 181 193 194 185 180 171 166 160 153 151 155 154 152 153 166 170 172 169 166 161 138 151 147 147 151 140 147 137 136
182 218 210 209 216 233 204 220 217 199 192 190 193 198 256 244 231 226 228 235 238 239 242 245 246 63 301 264 255 237 216 209 221 230 241 253 247 243 248 246 227 215 214 219 226 217 223 214 209 195 165 168 172 176 183 175 173 187 189 205 193 182 182 170 163 159 158 160 164 165 162 172 176 179 174 163 170 174 161 160 156 160 144 123 129 148 155
148 209 196 206 226 241 194 227 209 208 212 130 95 163 245 248 206 214 214 235 245 243 245 243 94 191 248 252 251 254 154 215 225 238 243 236 231 231 235 236 229 219 213 208 214 209 208 224 230 185 169 166 168 188 185 181 183 186 203 204 188 186 180 169 168 168 168 168 170 169 173 178 174 172 176 174 162 156 151 148 152 154 152 142 141 138 152
246 213 219 234 201 248 242 202 56 218 140 119 105 217 236 259 170 215 215 232 241 244 245 131 170 207 239 246 254 120 174 191 206 213 228 233 236 244 246 238 230 231 201 163 183 193 203 220 209 179 168 170 186 189 191 173 186 203 209 201 182 165 161 166 166 166 169 170 174 175 179 176 176 172 159 148 160 157 157 155 153 156 152 150 150 152 143
218 211 282 288 306 292 208 205 216 155 128 129 188 209 229 148 153 190 207 228 238 242 206 150 227 226 232 250 265 182 200 201 220 223 227 227 222 229 234 233 222 212 202 199 208 207 211 214 184 171 168 175 191 196 179 181 206 214 198 157 160 163 157 161 167 171 173 175 176 181 178 175 170 161 163 160 156 159 155 151 144 147 154 154 141 136 124
197 184 231 236 249 231 184 276 166 153 121 204 217 230 354 45 174 202 201 221 236 222 173 212 227 242 240 248 238 233 231 212 222 228 231 236 241 245 248 240 191 211 211 213 227 236 229 189 177 175 173 183 197 185 180 203 215 177 150 160 154 156 163 167 169 173 175 175 175 176 172 163 164 169 172 164 163 160 153 153 156 155 152 149 137 123 98
183 155 197 221 244 287 151 122 73 216 160 231 237 319 288 356 233 201 221 229 239 212 220 221 232 241 251 252 247 241 235 234 242 240 234 233 231 237 239 235 215 197 207 214 217 218 203 183 179 184 177 186 188 184 195 213 174 150 158 156 158 160 163 167 174 175 176 175 175 169 169 172 166 166 165 161 158 156 156 154 151 146 143 132 121 111 88
166 183 200 199 210 314 240 149 165 213 215 163 338 28 319 328 13 340 345 315 292 271 246 242 243 246 251 256 254 253 253 248 250 256 251 247 252 255 250 224 208 191 212 216 218 212 185 188 183 183 181 185 188 187 211 166 144 151 156 159 156 161 167 172 170 175 174 172 166 165 167 164 164 155 158 158 152 159 152 146 141 135 125 122 114 117 119
160 198 211 238 209 188 220 175 221 249 284 310 299 239 237 274 300 190 292 288 293 273 270 289 288 284 261 249 251 249 251 252 251 253 247 236 240 243 241 226 195 190 203 204 202 202 199 189 192 191 193 188 187 200 196 145 163 162 161 160 161 167 170 170 171 169 162 164 163 162 164 159 154 154 148 148 141 134 137 131 135 138 139 140 137 133 124
275 282 226 254 273 203 227 243 224 253 283 291 296 299 305 275 271 265 270 269 270 276 239 246 277 260 271 281 280 275 276 279 275 268 273 264 246 248 251 235 193 205 209 203 190 199 206 203 199 199 203 193 189 203 150 161 161 162 157 159 164 168 167 165 166 158 159 156 155 157 151 148 145 144 145 144 139 139 135 130 128 124 127 125 118 121 120
93 251 247 232 245 251 197 220 245 246 253 266 291 295 286 278 280 283 261 232 262 273 278 235 248 271 266 265 270 277 279 272 265 263 252 245 233 229 229 224 185 190 186 190 198 197 202 203 198 200 199 207 188 129 161 159 158 153 158 160 161 163 164 161 157 162 162 160 153 149 145 133 135 145 150 147 143 144 149 143 132 128 128 132 133 130 137
182 246 242 248 248 252 258 233 248 270 272 272 260 240 251 259 263 256 266 265 272 270 279 255 244 261 268 262 265 268 268 265 266 264 258 243 235 228 224 211 191 194 191 197 200 198 205 197 191 186 182 175 148 149 152 160 153 152 155 163 164 167 163 160 162 164 160 150 148 145 143 139 137 140 144 150 149 154 164 159 148 147 151 154 158 157 152
270 292 281 260 292 307 270 251 227 231 234 245 258 258 260 261 259 266 266 223 245 270 268 280 263 268 272 257 248 262 267 270 267 262 258 247 234 230 214 211 195 199 201 204 206 202 201 152 163 166 167 152 152 156 157 156 156 153 156 154 154 154 156 153 157 157 150 153 148 141 131 118 93 108 154 154 138 113 56 135 153 157 166 163 158 155 151
274 248 254 98 326 274 270 249 238 237 236 235 249 265 275 275 275 268 274 287 264 232 249 266 252 244 267 274 255 255 264 268 271 277 277 273 251 239 232 211 209 224 230 219 204 189 152 149 157 156 146 146 150 159 154 158 156 154 151 151 152 160 159 159 152 151 149 149 145 139 133 126 119 83 48 61 94 135 134 104 95 95 106 155 159 147 144
246 247 253 208 225 268 265 261 255 238 249 240 248 255 257 265 264 260 263 277 295 298 285 225 229 248 247 271 279 280 272 270 273 275 274 263 237 213 177 165 191 199 185 153 150 153 156 150 149 145 140 143 152 161 163 160 156 150 151 153 157 156 159 163 160 154 149 144 144 136 135 135 130 124 110 67 60 76 97 110 107 101 103 110 115 123 130
264 266 266 198 190 258 273 272 279 267 242 233 250 255 259 261 265 275 274 268 275 285 294 297 223 243 265 264 272 273 278 277 280 273 266 255 226 198 185 192 185 174 163 162 167 167 152 148 144 141 134 136 148 156 157 154 148 150 157 159 162 164 158 150 148 149 144 142 140 140 141 143 143 144 131 118 83 53 68 83 83 86 91 101 108 96 100
246 252 260 210 206 255 267 275 272 268 264 252 259 269 268 272 275 267 273 284 280 265 281 291 294 200 242 267 261 258 265 283 283 261 240 202 198 192 199 190 187 180 171 154 141 137 145 139 136 139 135 112 136 150 152 149 147 151 159 159 158 154 151 148 148 146 146 148 149 147 149 151 154 152 144 139 128 113 61 61 70 76 81 88 92 95 97
245 260 263 262 303 280 279 282 281 269 265 264 272 270 266 262 266 275 275 272 283 280 263 267 284 289 195 261 273 271 268 261 249 207 200 186 183 198 204 204 178 130 128 132 132 135 135 136 131 130 105 67 91 139 142 141 144 147 148 148 149 155 158 156 151 154 152 153 150 150 148 150 152 150 145 139 137 131 123 111 77 60 60 69 87 99 98
242 251 265 288 276 267 262 252 257 268 286 272 248 261 269 276 275 274 268 267 257 260 250 260 262 283 288 249 265 265 249 250 179 215 213 199 202 215 196 106 124 124 123 125 117 128 133 132 132 132 125 138 267 206 140 135 134 135 135 135 135 138 144 149 153 152 151 147 147 145 149 151 149 145 137 136 137 138 144 142 136 125 115 71 63 74 80
243 246 221 224 243 249 254 261 267 273 274 264 263 266 270 278 291 285 279 278 276 261 246 233 252 270 271 252 208 261 249 219 221 204 194 179 104 70 98 108 110 118 115 120 111 122 131 131 130 129 101 284 197 173 140 135 132 133 136 138 141 149 153 151 148 151 151 149 148 150 151 149 143 135 134 136 135 133 124 119 120 121 105 88 80 55 60
246 247 241 226 243 257 278 319 298 284 278 274 273 282 286 286 272 270 269 263 259 283 285 269 211 233 249 263 201 238 235 234 229 213 165 79 76 82 96 109 108 109 114 121 107 120 135 130 138 127 117 295 183 152 142 135 136 137 140 143 147 152 157 156 148 142 134 131 133 133 126 127 125 122 121 115 113 115 116 120 116 106 109 115 94 72 54
241 246 258 263 263 272 279 278 273 275 275 273 277 271 266 267 275 269 264 266 255 244 253 268 267 256 232 259 244 240 252 252 227 104 93 94 92 101 106 113 104 96 103 116 141 148 146 144 144 137 156 309 131 147 139 134 132 138 139 145 149 153 151 145 134 128 126 124 126 122 120 118 117 121 119 120 123 124 124 120 121 122 118 91 84 96 99
250 253 256 260 259 258 256 258 263 267 272 274 267 270 274 263 257 264 264 263 250 242 251 222 236 245 237 235 272 58 63 56 66 72 61 67 90 114 133 155 154 168 155 139 125 120 124 117 96 78 347 306 260 128 128 126 127 122 122 121 124 134 136 133 125 126 126 126 127 125 123 122 127 127 127 127 123 120 117 118 117 111 107 102 100 97 83
267 262 256 251 244 245 249 249 249 252 259 266 271 262 260 261 260 259 259 258 250 241 226 214 226 228 210 148 112 97 98 100 106 91 100 93 88 80 51 59 97 109 110 110 100 110 127 119 60 6 335 326 44 115 125 128 130 129 130 130 128 129 127 123 116 118 122 123 124 121 126 125 122 120 122 126 130 128 128 126 124 122 120 117 111 101 83
251 263 260 252 248 250 260 262 252 252 251 256 254 252 255 253 254 255 256 252 239 205 208 220 214 182 151 140 132 127 122 117 114 111 104 78 61 44 56 67 78 83 69 42 41 46 63 69 20 356 352 356 37 88 119 125 125 124 126 125 122 118 115 113 116 115 108 109 109 112 112 109 116 114 117 118 117 120 120 121 121 119 115 116 121 152 104
241 241 251 260 251 245 248 255 253 253 253 254 260 264 264 259 254 258 257 242 230 223 217 204 167 156 146 146 143 140 140 132 136 155 47 66 56 65 71 83 79 74 60 56 53 42 34 26 12 15 6 31 44 49 79 105 116 117 123 120 117 114 110 110 111 109 110 104 105 100 102 104 103 111 116 115 114 117 118 120 119 120 118 112 113 83 94
292 285 290 277 273 247 241 245 266 273 281 284 283 274 265 269 263 253 247 224 224 226 188 143 147 143 145 143 147 159 169 179 160 134 109 92 87 89 100 101 97 82 72 46 39 34 22 24 27 61 71 57 67 68 67 82 104 113 112 111 109 108 107 105 101 106 111 113 108 105 98 94 93 88 91 97 100 103 103 106 113 119 122 119 111 78 73
303 293 289 285 277 259 256 252 252 255 267 269 270 281 283 269 268 268 248 244 286 139 157 150 143 145 149 157 162 167 169 148 132 117 106 120 130 127 120 121 116 100 95 80 43 27 39 63 57 63 63 67 67 64 76 87 91 99 109 108 108 103 98 94 94 90 87 97 94 91 92 94 93 90 93 94 95 98 108 112 114 112 111 112 112 101 83
290 285 289 292 293 290 275 268 250 245 251 261 275 280 279 277 267 282 318 300 216 205 165 149 145 150 161 156 130 113 114 129 133 132 129 128 136 129 126 121 113 120 116 93 47 37 51 65 37 62 59 65 59 67 72 84 98 97 101 101 103 106 106 102 97 97 90 86 93 98 100 97 93 91 96 103 108 110 106 106 108 110 107 113 114 116 109
290 279 280 281 279 274 266 259 259 255 265 272 268 316 312 316 331 329 310 296 248 153 140 135 140 129 119 109 106 109 111 121 124 123 129 132 140 132 122 115 122 116 88 77 84 57 56 36 40 71 64 70 65 74 77 83 93 95 98 99 104 104 103 105 101 98 97 97 95 99 103 109 104 89 88 77 79 83 92 93 99 108 115 117 125 120 119
292 281 273 270 270 265 268 285 299 305 340 291 286 8 340 1 337 3 344 326 343 76 104 101 107 111 119 112 98 101 102 113 120 131 131 117 98 91 72 49 40 46 77 95 86 68 55 30 42 51 62 67 78 72 79 82 88 93 98 100 98 99 100 101 103 103 99 103 97 102 92 85 83 98 97 99 101 102 102 109 119 127 125 136 126 125 110
297 294 288 292 274 264 240 242 314 349 337 353 42 195 294 169 205 164 172 107 49 66 107 119 119 124 130 124 117 100 110 113 112 110 110 112 109 103 93 64 46 57 67 75 77 78 69 46 57 66 51 39 45 64 69 82 89 82 71 65 77 72 68 86 84 88 93 89 99 107 92 96 95 99 103 109 114 116 122 122 122 123 124 119 110 112 105
298 300 296 289 285 300 289 293 343 18 29 24 23 8 25 34 188 136 120 101 82 78 90 110 116 110 119 117 105 101 106 103 108 116 127 127 126 132 117 101 45 38 52 57 66 79 67 58 61 75 59 47 40 65 77 75 68 51 67 70 71 78 76 73 74 79 93 99 96 101 109 115 109 105 109 111 114 113 117 112 116 107 112 110 108 111 103
302 305 298 296 300 314 332 349 45 57 35 29 29 39 44 50 82 92 84 78 77 75 78 73 80 101 102 99 96 97 102 108 106 88 61 69 97 129 107 87 77 72 81 76 71 69 67 62 56 61 58 52 50 61 69 67 65 65 59 60 69 64 73 81 82 80 73 79 87 99 98 109 114 116 114 111 109 112 114 110 105 106 105 100 107 96 101
302 300 295 293 302 335 18 48 58 60 54 28 29 46 71 76 79 78 73 72 77 82 81 87 88 89 93 96 102 98 96 101 98 93 71 53 43 43 75 93 77 58 60 56 59 62 54 53 52 57 43 41 59 62 64 60 65 69 69 68 64 68 67 72 81 90 95 106 102 101 98 100 100 104 107 106 105 98 97 104 113 108 108 114 111 110 109
294 292 299 296 332 49 87 97 92 82 66 25 13 53 66 69 77 81 80 82 85 83 88 88 83 80 81 82 87 87 93 89 86 95 100 88 71 45 32 45 66 64 59 63 60 60 57 49 51 62 60 54 55 55 58 61 64 65 66 66 72 74 86 88 84 80 85 90 98 101 101 98 100 104 106 109 113 113 113 122 129 125 134 129 141 136 155
315 321 336 34 76 86 67 90 92 83 81 77 61 55 54 66 69 73 85 87 84 81 78 77 77 78 83 81 77 49 54 56 45 31 108 112 98 62 52 45 61 64 62 65 68 64 60 58 62 64 64 61 55 58 69 68 63 67 67 66 68 74 77 82 92 93 95 93 95 100 102 105 107 105 112 114 125 130 156 151 163 160 158 181 184 186 201
17 26 75 90 61 61 66 89 96 104 96 85 68 45 50 67 71 76 81 84 75 67 79 82 82 78 82 87 80 78 73 67 53 33 9 344 90 120 107 82 78 77 78 74 70 67 68 70 68 65 62 63 64 62 65 67 75 76 75 75 83 88 88 95 94 90 90 95 101 102 107 112 110 122 129 141 161 158 168 169 177 195 188 191 200 197 200
346 6 32 61 84 85 97 104 101 93 93 82 69 69 37 48 62 65 67 65 71 72 66 65 60 46 32 43 58 102 105 86 56 37 39 35 52 62 75 76 75 79 78 68 71 66 70 69 72 72 72 68 67 70 74 76 77 81 77 76 77 72 83 81 83 89 88 88 90 94 102 114 120 130 139 147 168 180 187 182 203 206 173 178 202 223 240
13 29 46 57 66 66 70 81 85 75 63 61 82 80 75 72 69 63 57 63 65 64 61 56 52 46 40 40 30 12 351 52 98 59 37 57 55 50 43 28 60 77 80 78 77 77 79 80 77 77 80 81 78 71 72 73 75 79 81 78 80 82 80 84 86 91 96 99 108 112 125 124 154 157 177 177 200 204 208 204 212 209 201 207 209 221 211
22 20 24 30 35 53 69 62 55 68 74 87 83 87 84 83 74 64 61 58 61 62 63 60 56 52 51 36 29 11 34 343 18 124 108 68 70 73 64 62 57 60 67 74 78 76 75 78 76 72 70 70 68 64 61 69 67 72 69 71 70 74 78 80 85 93 105 120 137 124 166 155 193 181 203 213 214 212 208 221 233 226 216 216 212 225 217
22 40 36 22 25 21 8 41 44 32 30 36 26 45 76 89 76 50 51 56 67 75 68 56 55 55 52 36 30 36 23 39 55 70 82 73 66 63 65 64 64 63 67 79 88 84 69 67 63 59 53 61 60 60 55 58 62 63 62 67 62 63 69 89 106 123 161 163 178 196 204 214 215 223 237 227 229 221 225 224 227 241 245 244 233 229 231
16 22 20 22 34 41 30 37 45 31 27 42 52 55 65 73 73 52 35 43 73 75 77 75 65 52 34 36 45 33 35 44 51 55 63 64 65 68 66 69 66 64 64 68 67 64 58 47 47 46 46 51 52 54 51 55 53 60 60 59 60 59 57 86 136 177 243 245 261 248 248 247 250 242 246 245 242 244 239 240 236 239 236 237 243 244 244
51 73 66 60 55 46 49 44 37 35 35 34 42 51 64 70 84 75 54 28 43 53 60 91 76 29 23 37 37 35 38 42 44 45 51 58 64 67 65 63 65 56 54 47 52 54 51 51 49 53 55 52 55 57 67 65 66 67 68 81 104 164 191 224 226 227 237 247 244 245 245 241 235 235 243 240 237 235 239 241 241 243 241 243 239 242 244